Weather in Novodonetskaya

Russia / Krasnodar Krai     45°41′58″N   39°46′56″E
temp.,
°C
wind,
m/s
gust,
m/s
humid.,
%
clouds,
%
prec.,
mm/h
press.,
hPa
HPBL,
m
16 may, mon
mon1600:00+11w35915 0.0 101584
03:00+10wsw33925 0.0 101543
06:00+11sw36915 0.0 1015134
09:00+17wsw696965 0.3 1016993
12:00+19wnw9125034 0.6 10162147
15:00+19wnw811502 0.6 10162153
18:00+17wnw58645 0.0 1017550
21:00+12w33753 0.0 101845
17 may, tue
tue1700:00+11wsw3771100 0.0 1018116
03:00+12sw3966100 0.0 1017242
06:00+12sw41077100 0.0 1016260
09:00+13wsw4785100 0.2 1017261
12:00+17w686559 0.7 10161371
15:00+18wnw586289 2.1 10141283
18:00+16nw5867100 0.1 1015545
21:00+11wsw348115 0.1 101543
18 may, wed
wed1800:00+12sw41288100 0.1 1014343
03:00+11sw51289100 0.3 1013345
06:00+12sw51391100 0.2 1012556
09:00+14wsw71382100 0.5 1011828
12:00+13wsw41193100 1.8 1011778
15:00+12wnw41094100 4.8 1011535
18:00+12nne1197100 4.8 101252
21:00+11n3499100 7.3 1012178
19 may, thu
thu1900:00+10nnw4896100 0.3 1013320
03:00+9nw2391100 0.3 101674
06:00+8nw369339 0.0 1018194
09:00+13nw457717 0.6 1020574
12:00+15nw567056 2.3 10211480
15:00+16nw576440 4.1 10211525
18:00+14wnw68735 0.3 1022856
21:00+10wsw35885 0.4 102381
20 may, fri
fri2000:00+10wsw41084100 0.0 1023241
03:00+10wsw5128591 0.1 1022321
06:00+10sw61286100 0.3 1022325
09:00+13wsw71284100 0.8 1021685
12:00+14w5979100 0.8 1021503
15:00+16nw587250 1.4 1020789
18:00+15w477637 0.4 1020840
21:00+11wsw349253 0.8 102170